Location: Newark
(40.9833°N, 0.0333°W)
Time: 00:22:52
(UTC+00:00)

deb Explorer IX - Pass Details

Date: 04 November 2020
Orbit: 537 x 1105 km, 38.8° (Epoch: 02 December)

Event Time Altitude Azimuth Distance (km) Brightness Sun altitude
Rises 02:28:47 0° 230° (SW) 2,888 - -46.2°
Reaches altitude 10° 02:31:05 10° 222° (SW) 2,055 - -45.8°
Maximum altitude 02:35:29 37° 155° (SSE) 1,113 - -45.0°
Exits shadow 02:40:11 12° 91° (E) 2,256 ? -44.2°
Drops below altitude 10° 02:40:36 10° 89° (E) 2,400 ? -44.1°
Sets 02:43:29 0° 82° (E) 3,441 ? -43.6°
